TimeEDT,TemperatureF,Dew PointF,Humidity,Sea Level PressureIn,VisibilityMPH,Wind Direction,Wind SpeedMPH,Gust SpeedMPH,PrecipitationIn,Events,Conditions,WindDirDegrees,DateUTC
12:53 AM,75.9,73.0,91,29.86,10.0,South,5.8,-,N/A,,Partly Cloudy,180,2012-10-20 04:53:00
1:53 AM,75.0,73.0,94,29.86,10.0,WSW,3.5,-,N/A,,Partly Cloudy,240,2012-10-20 05:53:00
2:53 AM,73.9,72.0,93,29.85,10.0,SW,3.5,-,N/A,,Partly Cloudy,230,2012-10-20 06:53:00
3:53 AM,73.0,72.0,96,29.85,10.0,WNW,4.6,-,N/A,,Partly Cloudy,290,2012-10-20 07:53:00
4:53 AM,73.9,72.0,93,29.85,10.0,Calm,Calm,-,N/A,,Partly Cloudy,0,2012-10-20 08:53:00
5:53 AM,73.0,71.1,93,29.86,10.0,West,5.8,-,N/A,,Partly Cloudy,260,2012-10-20 09:53:00
6:53 AM,73.0,71.1,93,29.87,10.0,WNW,3.5,-,N/A,,Scattered Clouds,290,2012-10-20 10:53:00
7:53 AM,73.0,71.1,93,29.88,10.0,WNW,3.5,-,N/A,,Scattered Clouds,290,2012-10-20 11:53:00
8:08 AM,73.4,71.6,94,29.89,10.0,NW,3.5,-,N/A,,Mostly Cloudy,310,2012-10-20 12:08:00
8:38 AM,77.0,71.6,83,29.90,10.0,NW,5.8,-,N/A,,Mostly Cloudy,320,2012-10-20 12:38:00
8:53 AM,78.1,72.0,81,29.90,10.0,NW,11.5,-,N/A,,Mostly Cloudy,320,2012-10-20 12:53:00
9:53 AM,80.1,72.0,76,29.92,10.0,NNW,10.4,-,N/A,,Scattered Clouds,340,2012-10-20 13:53:00
10:53 AM,82.9,71.1,67,29.93,10.0,North,10.4,-,N/A,,Scattered Clouds,350,2012-10-20 14:53:00
11:53 AM,84.0,70.0,63,29.92,10.0,NNW,10.4,-,N/A,,Mostly Cloudy,340,2012-10-20 15:53:00
12:53 PM,84.9,70.0,61,29.90,10.0,North,12.7,-,N/A,,Scattered Clouds,350,2012-10-20 16:53:00
1:53 PM,84.0,69.1,61,29.87,10.0,North,13.8,-,N/A,,Scattered Clouds,360,2012-10-20 17:53:00
2:53 PM,82.0,68.0,62,29.86,10.0,NE,12.7,-,N/A,,Scattered Clouds,40,2012-10-20 18:53:00
3:53 PM,82.0,69.1,65,29.85,10.0,NE,15.0,-,N/A,,Scattered Clouds,50,2012-10-20 19:53:00
4:53 PM,82.9,68.0,60,29.85,10.0,NNE,10.4,-,N/A,,Partly Cloudy,20,2012-10-20 20:53:00
5:53 PM,82.0,68.0,62,29.85,10.0,NNE,10.4,-,N/A,,Scattered Clouds,20,2012-10-20 21:53:00
6:53 PM,80.1,68.0,67,29.87,10.0,NNE,8.1,-,N/A,,Scattered Clouds,30,2012-10-20 22:53:00
7:53 PM,79.0,68.0,69,29.89,10.0,NNE,3.5,-,N/A,,Partly Cloudy,30,2012-10-20 23:53:00
8:53 PM,78.1,69.1,74,29.91,10.0,Calm,Calm,-,N/A,,Partly Cloudy,0,2012-10-21 00:53:00
9:53 PM,75.9,69.1,79,29.92,10.0,NNW,4.6,-,N/A,,Partly Cloudy,330,2012-10-21 01:53:00
10:53 PM,75.0,69.1,82,29.93,10.0,NNW,4.6,-,N/A,,Partly Cloudy,330,2012-10-21 02:53:00
11:53 PM,73.9,69.1,85,29.93,10.0,Calm,Calm,-,N/A,,Partly Cloudy,0,2012-10-21 03:53:00